Tracking 30310 objects as of 25-Apr-2025
HD Live streaming from Space Station
objects crossing your sky now

ATLAS 5 CENTAUR DEB

Track ATLAS 5 CENTAUR DEB now!


NORAD ID: 44692
Int'l Code: 2018-079BE
Perigee: 9,311.5 km
Apogee: 36,887.8 km
Inclination: 11.6 °
Period: 839.2 minutes
Semi major axis: 29470 km
RCS: Unknown
Launch date: October 17, 2018
Source: United States (US)
Launch site: AIR FORCE EASTERN TEST RANGE (AFETR)

Note: This is SATELLITE DEBRIS
Your satellite tracking list
Your tracking list is empty




NASA's NSSDC Master Catalog

Two Line Element Set (TLE):
1 44692U 18079BE  25114.22273364 -.00000019  00000-0  00000-0 0  9993
2 44692  11.6338 107.2838 4678609 180.9456 177.8396  1.71600689 36177
Source of the keplerian elements: AFSPC